Omaha, IA

8:21 AM CDT on October 18, 2017 (GMT -0500)
Eppley Airfield

Weather History for KOMA - January, 2012

Change the Weather History Date:

Friday, January 20, 2012

  Actual Average Record
Temperature  
Mean Temperature 16 °F 23 °F  
Max Temperature 23 °F 33 °F 64 °F (1944)
Min Temperature 9 °F 13 °F -22 °F (1883)
Degree Days  
Heating Degree Days 49 42  
Month to date heating degree days 703 840  
Since 1 July heating degree days 2869 3319  
Cooling Degree Days 0 0  
Month to date cooling degree days 0 0  
Year to date cooling degree days 0 0  
Moisture  
Dew Point 0 °F    
Average Humidity 56    
Maximum Humidity 67    
Minimum Humidity 45    
Precipitation  
Precipitation 0.00 in 0.02 in 0.61 in (1990)
Month to date precipitation 0.03 0.44  
Year to date precipitation 0.03 0.44  
Snow  
Snow 0.00 in 0.10 in - ()
Month to date snowfall 0.6 3.8  
Since 1 July snowfall 8.2 12.8  
Snow Depth 0.00 in    
Sea Level Pressure  
Sea Level Pressure 30.09 in    
Wind  
Wind Speed 11 mph (NE)    
Max Wind Speed 23 mph    
Max Gust Speed 28 mph    
Visibility 10 miles    
Events      
T = Trace of Precipitation, MM = Missing Value Source: NWS Daily Summary

Daily Weather History Graph

Daily Weather History Graph

Search for Another Location

Airport or City:

Trip Planner

Search our weather history database for the weather conditions in past years. The results will help you decide how hot, cold, wet, or windy it might be!

Date:

Astronomy

Jan. 20, 2012 Rise Set
Actual Time 7:44 AM CST 5:24 PM CST
Civil Twilight 7:14 AM CST 5:54 PM CST
Nautical Twilight 6:40 AM CST 6:28 PM CST
Astronomical Twilight 6:07 AM CST 7:01 PM CST
Moon 5:23 AM CST (1/20) 2:56 PM CST (1/20)
Length of Visible Light 10h 40m
Length of Day
9h 39m
Waning Crescent, 8% of the Moon is Illuminated
Jan 20
Waning Crescent
Jan 23
New
Jan 30
First Quarter
Feb 7
Full
Feb 14
Last Quarter

Hourly Weather History & Observations

Time (CST) Temp. Windchill Dew Point Humidity Pressure Visibility Wind Dir Wind Speed Gust Speed Precip Events Conditions
12:52 AM 10.0 °F -2.9 °F -5.1 °F 51% 30.14 in 10.0 mi ESE 9.2 mph - N/A   Overcast
1:52 AM 10.0 °F -3.7 °F -4.0 °F 53% 30.12 in 10.0 mi ESE 10.4 mph - N/A   Overcast
2:52 AM 10.0 °F -4.5 °F -2.9 °F 56% 30.09 in 10.0 mi SE 11.5 mph - N/A   Overcast
3:52 AM 10.0 °F -5.9 °F -4.0 °F 53% 30.03 in 10.0 mi ESE 13.8 mph - N/A   Overcast
4:52 AM 10.9 °F -5.4 °F -4.0 °F 51% 30.02 in 10.0 mi ESE 15.0 mph - N/A   Overcast
5:52 AM 10.4 °F -3.3 °F -4.0 °F 52% 29.96 in 10.0 mi ESE 10.4 mph - N/A   Overcast
6:52 AM 12.0 °F -0.4 °F -2.9 °F 51% 30.01 in 10.0 mi East 9.2 mph - N/A   Overcast
7:52 AM 12.0 °F -0.4 °F -0.9 °F 56% 29.99 in 10.0 mi SE 9.2 mph - N/A   Overcast
8:52 AM 12.9 °F 6.9 °F -0.9 °F 54% 30.06 in 10.0 mi NE 3.5 mph - N/A   Overcast
8:58 AM 12.2 °F - -0.4 °F 57% 30.00 in 10.0 mi Calm Calm - N/A   Overcast
9:52 AM 12.9 °F 5.2 °F -0.0 °F 56% 30.06 in 10.0 mi ENE 4.6 mph - N/A   Overcast
10:52 AM 15.8 °F 6.1 °F -0.4 °F 49% 30.00 in 10.0 mi ENE 6.9 mph - N/A   Overcast
11:52 AM 17.1 °F 7.6 °F 1.0 °F 50% 30.04 in 10.0 mi NE 6.9 mph - N/A   Overcast
12:07 PM 17.6 °F 10.7 °F 1.4 °F 49% 29.98 in 10.0 mi NNE 4.6 mph - N/A   Mostly Cloudy
12:52 PM 19.0 °F 13.9 °F 1.9 °F 47% 30.03 in 10.0 mi Variable 3.5 mph - N/A   Mostly Cloudy
1:52 PM 19.9 °F 10.1 °F 3.0 °F 48% 30.02 in 10.0 mi NNE 8.1 mph - N/A   Mostly Cloudy
2:52 PM 21.0 °F 11.4 °F 3.0 °F 46% 30.04 in 10.0 mi NNE 8.1 mph - N/A   Mostly Cloudy
3:52 PM 21.9 °F 9.8 °F 3.9 °F 46% 30.08 in 10.0 mi North 12.7 mph - N/A   Scattered Clouds
4:52 PM 19.4 °F 4.1 °F 3.2 °F 49% 30.06 in 10.0 mi NNW 18.4 mph - N/A   Scattered Clouds
5:52 PM 16.0 °F 0.1 °F 5.0 °F 62% 30.15 in 10.0 mi North 17.3 mph 27.6 mph N/A   Partly Cloudy
6:52 PM 14.0 °F -3.0 °F 3.9 °F 64% 30.19 in 10.0 mi North 18.4 mph 25.3 mph N/A   Mostly Cloudy
7:52 PM 14.0 °F -1.4 °F 3.9 °F 64% 30.22 in 10.0 mi NNW 15.0 mph - N/A   Overcast
8:52 PM 14.0 °F -0.8 °F 3.9 °F 64% 30.24 in 10.0 mi North 13.8 mph - N/A   Overcast
9:52 PM 12.0 °F -3.4 °F 3.0 °F 67% 30.27 in 10.0 mi North 13.8 mph - N/A   Overcast
10:52 PM 10.9 °F -4.7 °F 1.9 °F 67% 30.29 in 10.0 mi North 13.8 mph - N/A   Overcast
11:52 PM 10.9 °F -4.1 °F 1.9 °F 67% 30.29 in 10.0 mi North 12.7 mph - N/A   Overcast